Home > Weather > Sharjah > Past weeks

Flag for United Arab Emirates Past Weather in Sharjah, Sharjah, United Arab Emirates — Yesterday and Last 2 Weeks

Now
104 °F

Sunny.


Feels Like: 111 °F
Forecast: 92 / 108 °F
Wind: 8 mph from Northwest

Location: Sharjah International Airport

Current Time: Jul 23, 2016 at 5:21:14 PM

Latest Report: Jul 23, 2016 at 5:00 PM


Visibility: 10 mi

Pressure: 29.36 "Hg

Humidity: 31%

Dew Point: 68 °F

Location of SharjahLocation

Past Weather in Sharjah — Graph

°F

Sharjah Temperature Yesterday

Maximum temperature yesterday: 113 °F (at 1:00 PM)
Minimum temperature yesterday: 90 °F (at 6:00 AM)
Average temperature yesterday: 100 °F

High & Low Weather Summary for the Past Weeks

 TemperatureHumidityPressure
High115 °F (Jul 15, 12:00 PM)84% (Jul 9, 6:00 AM)29.59 "Hg (Jul 9, 6:00 AM)
Low84 °F (Jul 9, 2:00 AM)13% (Jul 11, 2:00 PM)29.33 "Hg (Jul 11, 3:00 PM)
Average99 °F47%29.45 "Hg
* Reported Jul 8 4:00 PM — Jul 23 4:00 PM, Sharjah, Weather by CustomWeather, © 2016

Note: Actual official high and low records may vary slightly from our data, if they occured in-between our weather recording intervals... More about our weather records

Advertising

Sharjah Weather History for the Previous 24 Hours

Scroll right to see more
 ConditionsComfort  
Time TempWeatherWind HumidityBarometerVisibility
4:00 PM
Sat, Jul 23
102 °FSunny.13 mph45%29.36 "Hg10 mi
3:00 PM104 °FSunny.16 mph43%29.36 "Hg10 mi
2:00 PM108 °FSunny.18 mph23%29.39 "Hg10 mi
1:00 PM106 °FSunny.14 mph30%29.39 "Hg10 mi
12:00 PM106 °FSunny.12 mph30%29.39 "Hg10 mi
11:00 AM111 °FSunny.7 mph14%29.42 "Hg10 mi
10:00 AM108 °FSunny.9 mph18%29.42 "Hg10 mi
9:00 AM102 °FSunny.7 mph23%29.42 "Hg10 mi
8:00 AM99 °FSunny.9 mph25%29.42 "Hg10 mi
7:00 AM93 °FSunny.10 mph36%29.42 "Hg10 mi
6:00 AM88 °FSunny.3 mph46%29.39 "Hg10 mi
5:00 AM93 °FClear.6 mph39%29.39 "Hg10 mi
4:00 AM93 °FClear.5 mph47%29.39 "Hg10 mi
3:00 AM93 °FClear.9 mph49%29.39 "Hg10 mi
2:00 AM93 °FClear.6 mph56%29.42 "Hg10 mi
1:00 AM91 °FClear.5 mph63%29.42 "Hg10 mi
12:00 AM91 °FClear.3 mph67%29.45 "Hg10 mi
11:00 PM
Fri, Jul 22
93 °FClear.2 mph59%29.45 "Hg10 mi
10:00 PM95 °FClear.3 mph56%29.45 "Hg10 mi
9:00 PM102 °FClear.3 mph45%29.42 "Hg10 mi
8:00 PM97 °FClear.6 mph53%29.42 "Hg10 mi
7:00 PM100 °FSunny.12 mph42%29.39 "Hg10 mi
6:00 PM102 °FSunny.13 mph40%29.42 "Hg10 mi
5:00 PM106 °FSunny.16 mph38%29.42 "Hg10 mi
Weather by CustomWeather, © 2016

See weather overviewHow to use our weather pages